When you browse on this site, cookies collect data to enhance your experience and personalize the content and advertising you see.
Visit our Privacy Policy to learn more. By continuing to use the site, you agree to this use of cookies and data.
  • In Netherlands
  • List of Countries
  • For 7 days
  • Water Temperature
  • Weather Map
  • Weather Widgets
  • user-avatar
    Login

    Hourly Weather Encamp

    Today, 20 February, Thursday

    Time Temperature Precipitation Wind Pressure Humidity
    00:00 +1°C° 0 mm 1 mps 627 mmHg 51%
    01:00 +1°C° 0 mm 1 mps 626 mmHg 48%
    02:00 +1°C° 0 mm 1 mps 626 mmHg 44%
    03:00 +2°C° 0 mm 1 mps 626 mmHg 41%
    04:00 +2°C° 0 mm 1 mps 625 mmHg 38%
    05:00 +2°C° 0 mm 1 mps 625 mmHg 35%
    06:00 +2°C° 0 mm 1 mps 625 mmHg 30%
    07:00 +4°C° 0 mm 1 mps 626 mmHg 30%
    08:00 +6°C° 0 mm 1 mps 627 mmHg 29%
    09:00 +8°C° 0 mm 0 mps 628 mmHg 28%
    10:00 +9°C° 0 mm 0 mps 628 mmHg 28%
    11:00 +11°C° 0 mm 1 mps 629 mmHg 28%
    12:00 +12°C° 0 mm 1 mps 629 mmHg 27%
    13:00 +12°C° 0 mm 1 mps 629 mmHg 30%
    14:00 +11°C° 0 mm 1 mps 628 mmHg 33%
    15:00 +11°C° 0 mm 1 mps 628 mmHg 35%
    16:00 +8°C° 0 mm 1 mps 627 mmHg 45%
    17:00 +6°C° 0 mm 1 mps 627 mmHg 54%
    18:00 +3°C° 0 mm 1 mps 626 mmHg 64%
    19:00 +3°C° 0 mm 1 mps 626 mmHg 64%
    20:00 +2°C° 0 mm 1 mps 627 mmHg 63%
    21:00 +2°C° 0 mm 1 mps 627 mmHg 63%
    22:00 +2°C° 0 mm 1 mps 627 mmHg 67%
    23:00 +2°C° 0 mm 1 mps 627 mmHg 71%

    Tomorrow, 21 February, Friday

    Time Temperature Precipitation Wind Pressure Humidity
    00:00 -1°C° 0 mm 2 mps 628 mmHg 74%
    01:00 +1°C° 0 mm 1 mps 628 mmHg 74%
    02:00 +1°C° 0 mm 1 mps 628 mmHg 73%
    03:00 +1°C° 0 mm 1 mps 627 mmHg 72%
    04:00 +1°C° 0 mm 1 mps 628 mmHg 71%
    05:00 +1°C° 0 mm 1 mps 628 mmHg 69%
    06:00 +1°C° 0 mm 1 mps 628 mmHg 68%
    13:00 +10°C° 0 mm 1 mps 632 mmHg 40%
    14:00 +10°C° 0 mm 1 mps 631 mmHg 43%
    15:00 +10°C° 0 mm 1 mps 631 mmHg 46%
    16:00 +8°C° 0 mm 1 mps 630 mmHg 58%
    17:00 +5°C° 0 mm 1 mps 629 mmHg 70%
    18:00 +3°C° 0 mm 1 mps 628 mmHg 81%
    19:00 +3°C° 0 mm 1 mps 628 mmHg 71%
    20:00 +3°C° 0 mm 1 mps 629 mmHg 60%
    21:00 +3°C° 0 mm 1 mps 629 mmHg 50%
    22:00 +3°C° 0 mm 1 mps 629 mmHg 45%
    23:00 +3°C° 0 mm 1 mps 629 mmHg 39%

    Day after tomorrow, 22 February, Saturday

    Time Temperature Precipitation Wind Pressure Humidity
    00:00 +3°C° 0 mm 1 mps 629 mmHg 34%
    01:00 +3°C° 0 mm 1 mps 629 mmHg 31%
    02:00 +3°C° 0 mm 1 mps 629 mmHg 29%
    03:00 +3°C° 0 mm 1 mps 629 mmHg 26%
    04:00 +3°C° 0 mm 1 mps 629 mmHg 26%
    05:00 +3°C° 0 mm 1 mps 629 mmHg 26%
    06:00 +3°C° 0 mm 1 mps 629 mmHg 26%
    07:00 +5°C° 0 mm 1 mps 630 mmHg 27%
    08:00 +7°C° 0 mm 1 mps 631 mmHg 28%
    09:00 +9°C° 0 mm 1 mps 632 mmHg 29%
    10:00 +11°C° 0 mm 1 mps 633 mmHg 28%
    11:00 +12°C° 0 mm 1 mps 634 mmHg 27%
    12:00 +13°C° 0 mm 1 mps 635 mmHg 26%
    13:00 +13°C° 0 mm 1 mps 634 mmHg 30%
    14:00 +13°C° 0 mm 1 mps 634 mmHg 34%
    15:00 +12°C° 0 mm 1 mps 633 mmHg 38%
    16:00 +10°C° 0 mm 1 mps 633 mmHg 48%
    17:00 +7°C° 0 mm 1 mps 632 mmHg 58%
    18:00 +5°C° 0 mm 1 mps 631 mmHg 68%
    19:00 +5°C° 0 mm 1 mps 631 mmHg 61%
    20:00 +5°C° 0 mm 1 mps 632 mmHg 54%
    21:00 +4°C° 0 mm 1 mps 632 mmHg 48%
    22:00 +4°C° 0 mm 1 mps 632 mmHg 44%
    23:00 +4°C° 0 mm 1 mps 632 mmHg 40%

    23 February, Sunday

    Time Temperature Precipitation Wind Pressure Humidity
    00:00 +4°C° 0 mm 1 mps 632 mmHg 37%
    01:00 +4°C° 0 mm 1 mps 632 mmHg 36%
    02:00 +4°C° 0 mm 1 mps 631 mmHg 35%
    03:00 +4°C° 0 mm 1 mps 631 mmHg 35%
    04:00 +4°C° 0 mm 1 mps 631 mmHg 35%
    05:00 +4°C° 0 mm 1 mps 631 mmHg 36%
    06:00 +4°C° 0 mm 1 mps 631 mmHg 36%
    07:00 +6°C° 0 mm 1 mps 632 mmHg 36%
    08:00 +8°C° 0 mm 0 mps 633 mmHg 36%
    09:00 +10°C° 0 mm 0 mps 634 mmHg 36%
    10:00 +11°C° 0 mm 0 mps 634 mmHg 34%
    11:00 +14°C° 0 mm 1 mps 635 mmHg 32%
    12:00 +15°C° 0 mm 1 mps 635 mmHg 31%
    13:00 +15°C° 0 mm 1 mps 635 mmHg 33%
    14:00 +15°C° 0 mm 1 mps 634 mmHg 36%
    15:00 +15°C° 0 mm 1 mps 634 mmHg 38%
    16:00 +12°C° 0 mm 1 mps 633 mmHg 48%
    17:00 +10°C° 0 mm 1 mps 632 mmHg 57%
    18:00 +7°C° 0 mm 0 mps 631 mmHg 66%
    19:00 +7°C° 0 mm 1 mps 631 mmHg 64%
    20:00 +7°C° 0 mm 1 mps 631 mmHg 62%
    21:00 +7°C° 0 mm 1 mps 631 mmHg 61%
    22:00 +7°C° 0 mm 1 mps 631 mmHg 59%
    23:00 +7°C° 0 mm 1 mps 630 mmHg 58%

    24 February, Monday

    Time Temperature Precipitation Wind Pressure Humidity
    00:00 +6°C° 0 mm 1 mps 630 mmHg 57%
    01:00 +6°C° 0 mm 1 mps 630 mmHg 57%
    02:00 +6°C° 0 mm 1 mps 629 mmHg 57%
    03:00 +6°C° 0 mm 1 mps 629 mmHg 57%
    04:00 +6°C° 0 mm 1 mps 629 mmHg 55%
    05:00 +6°C° 0 mm 1 mps 628 mmHg 54%
    06:00 +5°C° 0 mm 1 mps 628 mmHg 52%
    07:00 +7°C° 0 mm 1 mps 629 mmHg 49%
    08:00 +9°C° 0 mm 1 mps 630 mmHg 45%
    09:00 +11°C° 0 mm 1 mps 630 mmHg 42%
    10:00 +13°C° 0 mm 1 mps 630 mmHg 38%
    11:00 +14°C° 0 mm 1 mps 631 mmHg 33%
    12:00 +16°C° 0 mm 1 mps 631 mmHg 29%
    13:00 +15°C° 0 mm 1 mps 630 mmHg 32%
    14:00 +15°C° 0 mm 1 mps 630 mmHg 34%
    15:00 +15°C° 0 mm 1 mps 629 mmHg 36%
    16:00 +12°C° 0 mm 1 mps 628 mmHg 47%
    17:00 +10°C° 0 mm 1 mps 627 mmHg 59%
    18:00 +7°C° 0 mm 1 mps 626 mmHg 70%
    19:00 +7°C° 0 mm 1 mps 626 mmHg 67%
    20:00 +6°C° 0 mm 1 mps 626 mmHg 65%
    21:00 +5°C° 0 mm 1 mps 626 mmHg 63%
    22:00 +5°C° 0 mm 1 mps 625 mmHg 60%
    23:00 +5°C° 0 mm 1 mps 625 mmHg 57%

    25 February, Tuesday

    Time Temperature Precipitation Wind Pressure Humidity
    00:00 +5°C° 0 mm 1 mps 625 mmHg 55%
    01:00 +4°C° 0 mm 1 mps 625 mmHg 56%
    02:00 +4°C° 0 mm 1 mps 624 mmHg 57%
    03:00 +4°C° 0 mm 1 mps 624 mmHg 58%
    04:00 +3°C° 0 mm 1 mps 624 mmHg 58%
    05:00 +3°C° 0 mm 1 mps 624 mmHg 59%
    06:00 +3°C° 0 mm 1 mps 624 mmHg 59%
    07:00 +4°C° 0 mm 1 mps 624 mmHg 53%
    08:00 +6°C° 0 mm 1 mps 625 mmHg 46%
    09:00 +8°C° 0 mm 1 mps 625 mmHg 40%
    10:00 +8°C° 0 mm 1 mps 625 mmHg 40%
    11:00 +9°C° 0 mm 1 mps 626 mmHg 41%
    12:00 +9°C° 0 mm 2 mps 626 mmHg 42%
    13:00 +8°C° 0 mm 2 mps 625 mmHg 49%
    14:00 +7°C° 0 mm 2 mps 624 mmHg 56%
    15:00 +6°C° 0 mm 2 mps 624 mmHg 63%
    16:00 +4°C° 0 mm 2 mps 623 mmHg 69%
    17:00 +3°C° 0 mm 2 mps 623 mmHg 75%
    18:00 +3°C° 0 mm 1 mps 622 mmHg 82%
    19:00 +2°C° 0.1 mm 2 mps 622 mmHg 84%
    20:00 +1°C° 0.1 mm 2 mps 622 mmHg 87%
    21:00 +1°C° 0.1 mm 2 mps 623 mmHg 89%
    22:00 +1°C° 0.2 mm 2 mps 623 mmHg 90%
    23:00 +1°C° 0.2 mm 2 mps 623 mmHg 90%
    Show more